Weather History for KBML - December, 2013

Change the Weather History Date:

Friday, December 27, 2013

  Actual Average Record
Temperature  
Mean Temperature 22 °F -  
Max Temperature 28 °F 25 °F 43 °F (2011)
Min Temperature 17 °F 5 °F -2 °F (2002)
Degree Days  
Heating Degree Days 42    
Moisture  
Dew Point 18 °F    
Average Humidity 81    
Maximum Humidity 92    
Minimum Humidity 66    
Precipitation  
Precipitation 0.00 in - - ()
Sea Level Pressure  
Sea Level Pressure 30.12 in    
Wind  
Wind Speed 2 mph (West)    
Max Wind Speed 8 mph    
Max Gust Speed 16 mph    
Visibility 7 miles    
Events Snow    
Averages and records for this station are not official NWS values.
T = Trace of Precipitation, MM = Missing Value Source: NWS Daily Summary

Daily Weather History Graph

Daily Weather History Graph

Search for Another Location

Airport or City:

Trip Planner

Search our weather history database for the weather conditions in past years. The results will help you decide how hot, cold, wet, or windy it might be!

Date:

Astronomy

Dec. 27, 2013 Rise Set
Actual Time 7:20 AM EST 4:11 PM EST
Civil Twilight 6:47 AM EST 4:44 PM EST
Nautical Twilight 6:10 AM EST 5:21 PM EST
Astronomical Twilight 5:34 AM EST 5:57 PM EST
Moon 1:40 AM EST (12/27) 12:27 PM EST (12/27)
Length of Visible Light 9h 57m
Length of Day
8h 50m
Waning Crescent, 28% of the Moon is Illuminated
Dec 27
Waning Crescent
Jan 1
New
Jan 7
First Quarter
Jan 15
Full
Jan 24
Last Quarter

Hourly Weather History & Observations

Time (EST) Temp. Windchill Dew Point Humidity Pressure Visibility Wind Dir Wind Speed Gust Speed Precip Events Conditions
12:00 AM 17.1 °F - 15.1 °F 92% 30.08 in 1.8 mi Calm Calm - 0.00 in Snow Light Snow
12:19 AM 17.1 °F - 14.0 °F 88% 30.08 in 3.0 mi Calm Calm - 0.00 in Snow Light Snow
12:52 AM 17.1 °F - 15.1 °F 92% 30.15 in 4.0 mi Calm Calm - 0.00 in Snow Light Snow
1:17 AM 18.0 °F - 15.1 °F 88% 30.08 in 2.5 mi Calm Calm - 0.00 in Snow Light Snow
1:37 AM 18.0 °F - 15.1 °F 88% 30.07 in 3.0 mi Calm Calm - 0.00 in Snow Light Snow
1:52 AM 19.0 °F - 16.0 °F 88% 30.14 in 4.0 mi Calm Calm - 0.00 in Snow Light Snow
2:52 AM 23.0 °F 17.0 °F 19.0 °F 85% 30.14 in 8.0 mi Variable 4.6 mph - 0.00 in   Overcast
3:52 AM 24.1 °F 19.7 °F 19.0 °F 81% 30.13 in 9.0 mi Variable 3.5 mph - N/A   Overcast
4:39 AM 24.1 °F - 19.9 °F 84% 30.09 in 5.0 mi Calm Calm - 0.00 in Snow Light Snow
4:52 AM 24.1 °F 19.7 °F 19.9 °F 84% 30.15 in 9.0 mi Variable 3.5 mph - 0.00 in   Overcast
5:52 AM 23.0 °F - 18.0 °F 81% 30.16 in 10.0 mi Calm Calm - N/A   Overcast
6:07 AM 21.9 °F - 18.0 °F 85% 30.09 in 10.0 mi Calm Calm - N/A   Overcast
6:52 AM 21.0 °F - 17.1 °F 85% 30.16 in 10.0 mi Calm Calm - N/A   Overcast
7:52 AM 19.9 °F - 18.0 °F 92% 30.17 in 6.0 mi Calm Calm - 0.00 in Snow Light Snow
8:36 AM 21.0 °F - 17.1 °F 85% 30.11 in 1.8 mi Calm Calm - 0.00 in Snow Light Snow
8:52 AM 21.0 °F - 18.0 °F 88% 30.19 in 1.0 mi Calm Calm - 0.00 in Snow Light Snow
9:30 AM 24.1 °F - 21.0 °F 88% 30.10 in 1.5 mi Calm Calm - 0.00 in Snow Light Snow
9:45 AM 24.1 °F 19.7 °F 19.9 °F 84% 30.10 in 2.0 mi SE 3.5 mph - 0.00 in Snow Light Snow
9:52 AM 24.1 °F 19.7 °F 21.0 °F 88% 30.16 in 1.5 mi SSE 3.5 mph - 0.00 in Snow Light Snow
10:05 AM 25.0 °F - 21.0 °F 85% 30.10 in 3.0 mi Calm Calm - 0.00 in Snow Light Snow
10:37 AM 26.1 °F - 19.9 °F 78% 30.09 in 8.0 mi North - - 0.00 in   Overcast
10:52 AM 26.1 °F 21.9 °F 19.9 °F 78% 30.15 in 4.0 mi Variable 3.5 mph - 0.00 in Snow Light Snow
11:13 AM 28.0 °F 21.7 °F 21.0 °F 75% 30.07 in 8.0 mi Variable 5.8 mph - 0.00 in   Overcast
11:44 AM 28.9 °F 21.1 °F 19.0 °F 67% 30.08 in 9.0 mi West 8.1 mph 16.1 mph 0.00 in   Overcast
11:52 AM 28.0 °F - 19.0 °F 69% 30.13 in 9.0 mi North - - 0.00 in   Overcast
12:52 PM 26.1 °F 18.4 °F 17.1 °F 69% 30.13 in 10.0 mi West 6.9 mph - N/A   Mostly Cloudy
1:52 PM 26.1 °F 20.5 °F 16.0 °F 66% 30.11 in 10.0 mi Variable 4.6 mph - 0.00 in   Scattered Clouds
2:52 PM 27.0 °F 23.0 °F 17.1 °F 66% 30.11 in 10.0 mi West 3.5 mph - N/A   Overcast
3:52 PM 25.0 °F 18.1 °F 17.1 °F 72% 30.11 in 10.0 mi WSW 5.8 mph - 0.00 in   Overcast
4:52 PM 25.0 °F 20.7 °F 17.1 °F 72% 30.12 in 10.0 mi Variable 3.5 mph - 0.00 in   Overcast
5:52 PM 23.0 °F - 19.0 °F 85% 30.14 in 9.0 mi Calm Calm - N/A   Overcast
6:44 PM 24.1 °F 18.2 °F 19.0 °F 81% 30.09 in 8.0 mi NE 4.6 mph - 0.00 in   Overcast
6:52 PM 23.0 °F 18.4 °F 19.0 °F 85% 30.15 in 10.0 mi NNE 3.5 mph - 0.00 in   Overcast
7:52 PM 23.0 °F - 19.9 °F 88% 30.16 in 5.0 mi Calm Calm - 0.00 in Snow Light Snow
8:23 PM 25.0 °F 19.3 °F 19.0 °F 78% 30.10 in 10.0 mi Variable 4.6 mph - 0.00 in   Overcast
8:52 PM 25.0 °F 18.1 °F 18.0 °F 75% 30.16 in 8.0 mi WNW 5.8 mph - 0.00 in   Overcast
9:52 PM 24.1 °F 17.0 °F 18.0 °F 77% 30.17 in 9.0 mi Variable 5.8 mph - 0.00 in   Overcast
9:59 PM 24.1 °F 18.2 °F 18.0 °F 77% 30.10 in 9.0 mi WNW 4.6 mph - N/A   Overcast
10:52 PM 24.1 °F - 18.0 °F 77% 30.14 in 10.0 mi Calm Calm - N/A   Overcast
11:52 PM 19.0 °F - 16.0 °F 88% 30.14 in 8.0 mi Calm Calm - N/A   Mostly Cloudy